• MPC Preparation (Info)

  • MPEC 2022-V136 : 2022 VP1

    The following Minor Planet Electronic Circular may be linked-to from your own Web pages, but must not otherwise be redistributed electronically.

    A form allowing access to any MPEC is at the bottom of this page.


    Read MPEC 2022-V135 Read MPEC 2022-V137


    M.P.E.C. 2022-V136                            Issued 2022 November 13, 00:16 UT
    
         The Minor Planet Electronic Circulars contain information on unusual
             minor planets, routine data on comets and natural satellites,
             and occasional editorial announcements.  They are published
        on behalf of Division F of the International Astronomical Union by the
              Minor Planet Center, Smithsonian Astrophysical Observatory,
                              Cambridge, MA 02138, U.S.A.
    			  
                 Prepared using the Tamkin Foundation Computer Network
    
                                  MPC@CFA.HARVARD.EDU
                URL https://www.minorplanetcenter.net/    ISSN 1523-6714
    
                                    2022 VP1                                 
    
    
    Observations:
         K22V01P  C2022 10 02.43841100 26 25.624+03 10 52.92         22.81GVEV136F51
         K22V01P  C2022 10 02.47222000 26 22.536+03 10 50.83         22.84GVEV136F51
         K22V01P  C2022 10 20.29879823 54 24.811+03 01 45.61         21.83GVEV136F51
         K22V01P  C2022 10 20.30948223 54 23.176+03 01 46.39         21.64GVEV136F51
         K22V01P* C2022 11 12.22062822 47 21.513+05 48 34.79         21.44wUEV136F51
         K22V01P  C2022 11 12.23568622 47 17.311+05 48 50.79         21.37wUEV136F51
         K22V01P  C2022 11 12.26191222 47 09.949+05 49 18.73         21.39wUEV136F51
         K22V01P  C2022 11 12.31877622 46 54.059+05 50 18.42         20.74GVEV136F52
         K22V01P  C2022 11 12.31940522 46 53.900+05 50 19.11         20.97GVEV136F52
         K22V01P 1C2022 11 12.74487 22 45 10.80 +05 57 23.1          20.3 VXEV136033
         K22V01P 1C2022 11 12.74773 22 45 09.97 +05 57 26.0          20.6 VXEV136033
         K22V01P 1C2022 11 12.75033 22 45 09.25 +05 57 28.8          20.7 VXEV136033
         K22V01P 1C2022 11 12.75314 22 45 08.47 +05 57 32.1          20.8 VXEV136033
         K22V01P 1C2022 11 12.75574 22 45 07.73 +05 57 35.0          20.9 VXEV136033
         K22V01P pC2022 11 12.80681322 44 53.43 +05 58 38.2          21.0 GVEV136L01
         K22V01P pC2022 11 12.80933122 44 52.69 +05 58 41.7          21.1 GVEV136L01
         K22V01P pC2022 11 12.81185422 44 52.02 +05 58 44.4          21.0 GVEV136L01
    
    Observer details:
    033 Karl Schwarzschild Observatory, Tautenburg.  Observers S. Melnikov, C.
        Hoegner, F. Ludwig, B. Stecklum.  Measurer B. Stecklum.  1.34-m f/3
        Schmidt + CCD.
    F51 Pan-STARRS 1, Haleakala.  Observers J. Bulger, K. Chambers, T. Lowe, A.
        Schultz, I. Smith.  Measurers S. Chastel, J. Fairlamb, M. Huber, Y.
        Ramanjooloo, R. Wainscoat, R. Weryk, K. Chambers, T. de Boer, H. Gao,
        C.-C. Lin, E. Magnier.  1.8-m Ritchey-Chretien + CCD.
    F52 Pan-STARRS 2, Haleakala.  Observers J. Bulger, K. Chambers, T. Dukes, T.
        Lowe, A. Schultz, I. Smith.  Measurers S. Chastel, J. Fairlamb, M. Huber,
        Y. Ramanjooloo, R. Wainscoat, R. Weryk.  1.8-m Ritchey-Chretien + CCD.
    L01 Visnjan Observatory, Tican.  Observer K. Korlevic.  1.0-m f/2.9 reflector
        + CCD.
    
    Orbital elements:
    2022 VP1                                                 Earth MOID = 0.0266 AU
    Epoch 2022 Aug. 9.0 TT = JDT 2459800.5                  Veres                   
    M 306.39048              (2000.0)            P               Q                  
    n   0.40894895     Peri.   81.76221     +0.02788870     -0.99960305             
    a   1.7975873      Node     6.64359     +0.90299730     +0.02347913             
    e   0.4745496      Incl.    1.97858     +0.42874012     +0.01557130             
    P   2.41           H   24.06          G   0.15           U   6                  
    Residuals in seconds of arc
    221002 F51  0.1+  0.0     221112 F51  0.0   0.0     221112 033  0.1-  0.2+
    221002 F51  0.1-  0.0     221112 F52  0.0   0.1-    221112 033  0.4-  0.2+
    221020 F51  0.0   0.1-    221112 F52  0.3+  0.0     221112 L01  0.3+  0.6+
    221020 F51  0.0   0.1+    221112 033  0.6+  0.4+    221112 L01  0.2-  1.3+
    221112 F51  0.2-  0.1-    221112 033  0.0   0.1+    221112 L01  0.3+  1.2+
    221112 F51  0.1+  0.1-    221112 033  0.1-  0.0
    
    Ephemeris:
    2022 VP1                 a,e,i = 1.80, 0.47, 2                   q = 0.9445
    Date    TT    R. A. (2000) Decl.     Delta      r    Elong.  Phase     V
    2022 10 14    00 07 35.6 +03 01 05   0.2186  1.2079   162.5    14.4    22.0
    ...
    2022 10 29    23 33 02.6 +03 23 43   0.1527  1.1142   139.6    35.3    21.7
    ...
    2022 11 06    23 09 47.1 +04 22 24   0.1233  1.0692   126.4    48.3    21.5
    ...
    2022 11 12    22 48 15.0 +05 45 04   0.1027  1.0388   115.8    59.1    21.3
    2022 11 13    22 44 05.5 +06 03 08   0.09934 1.0340   113.9    61.1    21.3
    2022 11 14    22 39 42.8 +06 22 40   0.09602 1.0293   112.0    63.1    21.3
    ...
    2022 11 20    22 06 59.5 +08 56 28   0.07675 1.0035    99.3    76.4    21.2
    ...
    2022 11 28    20 49 59.5 +14 27 52   0.05456 0.9755    76.5   100.4    21.3
    ...
    2022 12 13    16 02 56.8 +16 23 07   0.05338 0.9466    43.7   134.1    23.7
    
    M. P. C. Staff               (C) Copyright 2022 MPC           M.P.E.C. 2022-V136
    


    Read MPEC 2022-V135 Read MPEC 2022-V137


    MPEC number:

    Enter an MPEC number in one of the following forms:

    • 1997-B01 (the full form)
    • J97B01 (the packed version of the full form)
    • B01 (the abbreviated form)